Location: Arcizac-Adour
(43.1561°N, 0.0992°E)
Time: 09:26:08
(UTC+00:00)

Daily predictions for brighter satellites

Satellite Brightness Start Highest point End
(mag) Time Altitude Azimuth Time Altitude Azimuth Time Altitude Azimuth
Cosmos 1709 Rocket 4.2 19:40:30 10° N 19:46:31 56° ENE 19:52:30 10° SSE
CZ-4C R/B 3.2 19:40:39 10° NNW 19:47:58 74° NE 19:56:25 10° SE
Cosmos 1782 2.8 19:50:54 10° S 19:54:50 65° E 19:58:47 10° NNE
CZ-4 R/B 4.3 19:53:35 10° WSW 19:55:36 13° W 19:57:38 10° WNW
USA 308 3.2 19:51:52 10° NW 19:56:08 61° NNE 20:00:23 10° ESE
Cosmos 1933 4.0 19:54:32 10° SSW 19:58:29 59° W 20:02:28 10° N
X-37B 2.8 19:57:05 10° WSW 19:59:16 17° SW 20:01:27 10° S
Helios 1A Rocket 4.2 19:55:42 10° S 19:59:38 42° W 20:03:35 10° NNW
Cosmos 1500 3.6 19:58:59 10° N 20:02:34 42° ENE 20:06:06 10° SSE
Cosmos 1437 2.3 20:00:12 10° S 20:03:00 68° E 20:05:49 10° NNE
SJ-6B 3.4 20:03:20 10° S 20:07:13 58° W 20:11:13 10° NNW
ERS-2 3.7 20:07:36 10° N 20:11:00 39° WNW 20:14:23 10° SW
Terra 4.1 20:14:36 10° ENE 20:15:22 10° ENE 20:16:08 10° NE
Cosmos 1515 Rocket 3.8 20:14:41 10° S 20:18:56 51° E 20:23:11 10° NNE
Cosmos 2228 Rocket 4.3 20:19:04 14° SE 20:21:50 24° E 20:25:24 10° NE
USA 267 4.1 20:15:41 10° SSE 20:21:51 44° SW 20:28:04 10° WNW
Cosmos 2315 Rocket 4.1 20:16:05 10° S 20:22:27 86° W 20:28:53 10° N
Tianhe-1 1.6 20:19:50 10° SW 20:22:46 38° SSE 20:25:05 15° E
Cosmos 1633 Rocket 3.4 20:19:18 10° NNW 20:23:41 66° W 20:28:03 10° S
Resurs 01 Rocket 1.7 20:21:33 11° SSE 20:25:43 67° ENE 20:30:08 10° N
Akebono 4.3 20:26:28 10° NNW 20:28:32 57° WSW 20:30:07 17° S
BREEZE M DEB (TANK) 3.4 20:24:11 10° WNW 20:28:57 35° N 20:31:10 10° ENE
Cosmos 1328 Rocket 4.0 20:25:33 10° SSW 20:29:56 66° W 20:34:20 10° N
SWARM A 4.5 20:28:00 10° N 20:31:15 50° E 20:33:27 18° SSE
Cosmos 2082 Rocket 2.5 20:25:52 10° NNW 20:31:25 56° ENE 20:35:39 17° SE
SPOT 1/Viking Rocket 4.1 20:27:48 15° SE 20:31:45 43° ENE 20:36:38 10° N
ERS-1 Rocket 4.5 20:29:27 13° ESE 20:32:31 22° ENE 20:36:21 10° NNE
USA 305 3.0 20:29:31 10° WNW 20:33:44 67° SW 20:36:40 19° SE
Cosmos 1943 Rocket 3.3 20:35:05 17° SE 20:37:38 23° E 20:41:55 10° NE
Spot 2 Rocket 4.3 20:35:19 17° SE 20:38:36 37° ENE 20:43:12 10° N
OBJECT-B 3.5 20:38:01 10° SW 20:40:17 18° W 20:42:34 10° NW
Cosmos 1538 Rocket 4.1 20:35:01 10° NNW 20:40:24 81° WSW 20:44:50 15° SSE
Cosmos 1470 Rocket 3.7 20:36:38 10° NNW 20:41:09 76° W 20:45:21 11° S
Meteor 1-10 Rocket 4.3 20:35:51 10° S 20:41:20 61° E 20:46:57 10° NNE
Landsat 7 3.8 20:40:50 16° SSE 20:44:41 81° ENE 20:49:28 10° N
SPOT 5 4.2 20:42:26 17° ESE 20:45:25 29° ENE 20:49:58 10° N
Cosmos 1536 4.0 20:43:45 10° NNE 20:47:15 28° ENE 20:48:43 22° ESE
SPOT 3 Rocket 3.6 20:43:34 14° SSE 20:48:04 85° WSW 20:53:15 10° NNW
Cosmos 1271 Rocket 2.7 20:44:37 12° S 20:48:19 72° E 20:52:19 10° NNE
CZ-2C R/B 3.7 20:44:15 10° NNE 20:48:46 68° ESE 20:53:17 10° S
COSMOS 2406 3.8 20:47:48 10° NW 20:53:18 52° WSW 20:58:07 13° S
USA 306 3.5 20:49:16 10° WNW 20:53:22 47° SW 20:55:36 24° SSE
ISS -3.5 20:50:09 10° WSW 20:53:31 72° NNW 20:56:53 10° NE
CREW DRAGON DEMO-1 DEB 4.1 20:51:22 10° W 20:53:33 23° SW 20:54:02 22° SSW
Cosmos 2278 Rocket 3.2 20:48:47 10° SW 20:54:15 50° WNW 20:59:47 10° NNE
Cosmos 1680 Rocket 4.0 20:49:27 10° N 20:54:35 46° ENE 20:57:31 24° SE
Cosmos 1933 Rocket 3.5 20:50:31 10° N 20:54:52 83° W 20:57:58 19° S
SJ 16-02 2.1 20:52:32 10° SW 20:56:52 54° WNW 21:01:14 10° N
Cosmos 2369 Rocket 3.6 20:58:46 18° ESE 20:59:05 18° E 21:02:44 10° ENE
Cosmos 1544 4.3 20:57:30 10° NNE 21:00:37 26° ENE 21:01:17 25° E
IGS 5A 4.0 20:57:54 16° S 21:01:05 56° W 21:05:11 10° NNW
Cosmos 1666 3.0 21:03:40 10° NNW 21:07:21 59° W 21:09:29 23° SSW
JB-3 4.3 21:06:59 10° NNE 21:10:47 56° E 21:12:01 37° SSE
ARIANE 5 R/B 2.6 21:10:14 32° SSE 21:12:06 67° ENE 21:16:25 10° N
Cosmos 1812 4.5 21:09:25 10° SW 21:12:52 31° WNW 21:16:22 10° NNW
Iridium 4 Rocket 3.9 21:12:28 15° S 21:17:25 80° W 21:23:21 10° N
NOSS 3-4 (A) 4.1 21:10:34 10° NW 21:17:37 67° WSW 21:22:34 24° SSE
NOSS 3-4 (C) 4.1 21:10:40 10° NW 21:17:43 68° WSW 21:22:39 24° SSE
USA 245 2.6 21:18:31 54° WNW 21:18:31 54° WNW 21:20:35 10° NNW
BREEZE-M DEB (TANK) 2.7 21:16:39 10° NW 21:18:30 30° NNE 21:18:58 27° NE
USA 307 4.2 21:18:19 10° WNW 21:22:02 29° SW 21:23:19 25° SSW
Cosmos 990 Rocket 4.0 21:17:37 10° SSW 21:22:51 87° WNW 21:28:09 10° NNE
Cosmos 1833 Rocket 4.2 21:19:22 10° NW 21:24:08 29° WSW 21:28:30 12° SSW
OAO 3 Rocket 4.0 21:21:01 10° WSW 21:24:50 30° S 21:24:50 30° S
Cosmos 1898 Rocket 3.4 21:21:38 16° SSW 21:25:51 81° ESE 21:31:13 10° NNE
Meteor 1-27 Rocket 3.8 21:24:44 17° S 21:29:19 86° W 21:35:17 10° N
ATLAS 2AS CENTAUR R/B 2.7 21:23:41 10° NW 21:31:03 89° SW 21:34:30 32° SSE
SL-24 R/B - RUBIN 2 3.8 21:26:58 10° NW 21:32:22 88° NE 21:34:02 42° SE
Cosmos 923 Rocket 4.3 21:27:35 10° NNW 21:32:49 64° WSW 21:35:18 31° S
Cosmos 44 3.4 21:28:35 10° NW 21:34:02 87° SW 21:35:56 41° SSE
USA 308 4.5 21:32:25 10° WNW 21:35:49 23° SW 21:36:40 22° SSW
CZ-4C R/B 4.4 21:29:53 10° NW 21:36:18 30° WSW 21:42:29 13° SSW
Cosmos 1818 3.7 21:31:13 10° NNW 21:36:42 66° NE 21:38:46 38° ESE
Cosmos 2154 Rocket 4.0 21:31:15 10° N 21:37:35 82° W 21:40:59 29° S
Cosmos 1743 2.8 21:34:58 10° N 21:38:48 58° E 21:39:06 55° ESE
Nadezhda 1 Rocket 4.1 21:35:33 18° SSW 21:40:24 75° W 21:46:38 10° N
Cosmos 962 Rocket 4.5 21:36:18 10° N 21:42:25 65° E 21:44:46 38° SSE
BREEZE-M R/B 4.0 21:45:20 10° NW 21:47:25 24° NNE 21:48:00 22° NE
H-2A R/B 3.3 21:47:50 10° NNE 21:52:01 72° ESE 21:52:23 67° SE
Terra 1.7 21:51:09 52° SSE 21:52:17 81° ENE 21:57:04 10° N
Cosmos 1461 3.2 21:50:19 19° SW 21:53:43 79° WNW 21:58:22 10° NNE
Gbstr 26 Del rocket 4.1 21:47:46 10° WNW 21:55:24 83° NNE 21:58:20 36° ESE
Cosmos 1862 Rocket 3.6 21:57:49 55° E 21:57:49 55° E 22:02:03 10° NNE
Cosmos 2297 4.2 21:53:26 10° SW 21:59:03 60° WNW 22:04:41 10° NNE
Tianhe-1 3.3 21:56:03 10° W 21:57:04 19° W 21:57:04 19° W
Cosmos 1340 Rocket 3.1 21:55:48 10° NNW 21:59:49 59° W 22:00:21 53° SW
Okean 1 3.2 22:00:55 71° ENE 22:00:55 71° ENE 22:04:45 10° NNE
Resurs 01 Rocket 4.3 22:00:54 10° WSW 22:02:39 12° W 22:04:24 10° WNW
ATLAS CENTAUR R/B 3.3 22:10:15 17° ENE 22:10:15 17° ENE 22:11:16 10° NE
Cosmos 1607 4.1 22:06:38 45° SSE 22:08:16 57° ESE 22:14:37 10° NE
ERS-1 Rocket 3.6 22:09:26 36° SW 22:10:59 47° W 22:15:51 10° NNW
Cosmos 1515 3.9 22:13:57 62° WNW 22:13:57 62° WNW 22:17:42 10° N
Cosmos 2082 Rocket 4.0 22:10:52 10° NW 22:15:02 22° W 22:17:31 16° SW
Cosmos 2366 rocket 4.0 22:11:14 10° N 22:17:25 68° E 22:18:59 50° SE
Cosmos 2181 Rocket 3.8 22:16:13 49° S 22:18:00 80° E 22:24:09 10° N
ERBS 3.7 22:15:36 10° NW 22:17:42 36° WNW 22:17:42 36° WNW
Cosmos 1707 Rocket 4.5 22:18:53 34° WSW 22:20:08 43° WNW 22:24:23 10° N
Cosmos 1937 Rocket 4.3 22:17:05 19° SW 22:20:27 47° WNW 22:25:28 10° N
Cosmos 1943 Rocket 2.8 22:16:30 16° SW 22:20:58 53° WNW 22:26:27 10° NNE
Cosmos 489 Rocket 4.4 22:15:20 10° NNW 22:21:37 88° WSW 22:23:16 53° SSE
SPOT 5 4.1 22:21:40 31° SW 22:23:18 38° W 22:28:16 10° NNW
Milstar 3 4.2 22:17:28 10° WSW 22:28:40 32° SSW 22:29:20 32° S
Cosmos 1867 3.4 22:28:40 57° SSW 22:29:50 86° ESE 22:35:20 10° NE
Cosmos 1656 Rocket 3.5 22:30:07 63° SE 22:30:22 63° ESE 22:35:50 10° NNE
ISS -1.2 22:28:01 10° WNW 22:30:45 22° NNW 22:33:29 10° NE
Spot 4 4.5 22:30:35 42° E 22:30:56 42° ENE 22:35:30 10° N
Cosmos 1238 Rocket 3.7 22:31:34 10° NNW 22:37:09 58° W 22:37:53 52° SW
Cosmos 1975 3.3 22:37:48 10° N 22:41:09 59° NNW 22:41:09 59° NNW
Cosmos 1048 Rocket 4.1 22:37:05 10° NNW 22:42:21 64° ENE 22:42:47 61° E
Cosmos 2369 Rocket 2.4 22:40:29 40° SW 22:42:29 67° WNW 22:48:08 10° NNE
Cosmos 2218 Rocket 4.1 22:40:51 10° NNW 22:47:09 71° W 22:48:39 52° SSW
ALOS 2 3.8 22:47:43 32° ENE 22:47:43 32° ENE 22:51:27 10° N
Cosmos 1733 Rocket 4.2 22:45:32 10° NNW 22:49:26 34° W 22:49:30 34° W
BREEZE-M DEB (TANK) 4.5 22:34:05 10° WNW 22:50:42 76° NNE 22:52:47 40° E
Lacrosse 5 3.2 22:54:18 28° ENE 22:54:18 28° ENE 22:56:57 10° ENE
RESURS DK-1 2.9 22:50:12 10° NNW 22:53:36 58° NNW 22:53:36 58° NNW
SL-27 R/B 4.3 22:51:12 10° N 22:53:01 28° N 22:53:01 28° N
Nadezhda 3 Rocket 4.0 22:59:44 58° ESE 23:00:25 62° E 23:06:32 10° NNE
Cosmos 1908 Rocket 4.1 23:05:10 10° NNW 23:09:03 54° WNW 23:09:03 54° WNW
Cosmos 2298 Rocket 4.1 23:09:55 62° WSW 23:10:28 67° WNW 23:15:46 10° NNE
Meteor 1-12 Rocket 4.2 23:06:02 10° N 23:11:51 69° ENE 23:12:18 66° ESE
COSMOS 2455 4.5 23:13:13 10° NNW 23:18:18 27° NE 23:21:45 17° E
Cosmos 494 Rocket 3.9 23:15:34 10° NNW 23:20:30 78° WNW 23:20:30 78° WNW
ATLAS 2AS CENTAUR R/B 4.4 23:16:34 10° WNW 23:20:50 17° WSW 23:21:55 16° WSW
Cosmos 2242 Rocket 4.3 23:21:30 48° WNW 23:21:30 48° WNW 23:25:32 10° N
Cosmos 1066 Rocket 4.2 23:22:33 67° ESE 23:22:37 67° E 23:28:12 10° NNE
COBE Rocket 4.0 23:26:12 71° ENE 23:26:12 71° ENE 23:31:18 10° N
Okean 2 Rocket 4.2 23:24:40 10° N 23:28:09 37° NE 23:28:09 37° NE
Meteor 1-15 Rocket 4.4 23:23:53 10° N 23:29:34 59° ENE 23:30:02 57° E
Cosmos 2239 Rocket 4.3 23:24:15 10° N 23:30:36 89° E 23:31:22 71° S
Terra 4.3 23:30:02 11° W 23:30:37 11° W 23:31:52 10° WNW
Okean 1-7 4.1 23:33:21 38° WNW 23:33:21 38° WNW 23:36:54 10° N
Cosmos 2227 Rocket 4.5 23:29:50 10° N 23:33:33 17° NE 23:37:15 10° E
Cosmos 44 Rocket 3.4 23:30:04 10° NW 23:34:54 76° NW 23:34:54 76° NW
Cosmos 2297 Rocket 4.1 23:31:35 10° N 23:35:59 22° NE 23:39:09 15° E
NOSS 2-1 (C) 4.3 23:39:24 10° NW 23:44:29 82° NE 23:45:14 69° ESE
Cosmos 1125 Rocket 4.2 23:44:32 43° W 23:45:11 45° WNW 23:50:12 10° N
ATLAS CENTAUR R/B 3.4 23:46:20 20° NW 23:46:47 20° NW 23:49:42 10° N
NOSS 2-1 (D) 4.2 23:46:16 10° NW 23:51:23 89° SW 23:51:55 76° SSE
Cosmos 1934 Rocket 3.7 23:46:50 10° N 23:52:58 90° S 23:53:27 77° S
